| time (UTC) | temp C | wind direction | speed KPH | gust KPH | rain 1hr cm | rain 24hr cm | rain mn cm | humidity % | barometer mb |
| 20260504023919 | 15 | 0.0 | 0.0 | 0.00 | 0.00 | 0.00 | 10 | 1050.0 | |
| 20260504022343 | 15 | 0.0 | 0.0 | 0.00 | 0.00 | 0.00 | 10 | 1050.1 | |
| 20260504020807 | 15 | 0.0 | 0.0 | 0.00 | 0.00 | 0.00 | 10 | 1050.2 | |
| 20260504015231 | 15 | 0.0 | 0.0 | 0.00 | 0.00 | 0.00 | 10 | 1050.1 | |
| 20260504013655 | 15 | 0.0 | 0.0 | 0.00 | 0.00 | 0.00 | 10 | 1050.3 | |
| 20260504012119 | 15 | 0.0 | 0.0 | 0.00 | 0.00 | 0.00 | 10 | 1050.0 | |
| 20260504010543 | 15 | 0.0 | 0.0 | 0.00 | 0.00 | 0.00 | 10 | 1050.0 | |
| 20260504005007 | 15 | 0.0 | 0.0 | 0.00 | 0.00 | 0.00 | 10 | 1050.1 | |
| 20260504003431 | 15 | 0.0 | 0.0 | 0.00 | 0.00 | 0.00 | 10 | 1050.1 | |
| 20260504001855 | 15 | 0.0 | 0.0 | 0.00 | 0.00 | 0.00 | 10 | 1050.2 | |
| 20260504000319 | 15 | 0.0 | 0.0 | 0.00 | 0.00 | 0.00 | 10 | 1050.3 | |
| 20260503234743 | 15 | 0.0 | 0.0 | 0.00 | 0.00 | 0.00 | 10 | 1050.6 | |
| 20260503233207 | 14 | 0.0 | 0.0 | 0.00 | 0.00 | 0.00 | 10 | 1050.5 | |
| 20260503231631 | 15 | 0.0 | 0.0 | 0.00 | 0.00 | 0.00 | 10 | 1050.4 | |
| 20260503230056 | 15 | 0.0 | 0.0 | 0.00 | 0.00 | 0.00 | 10 | 1050.6 | |
| 20260503224519 | 14 | 0.0 | 0.0 | 0.00 | 0.00 | 0.00 | 10 | 1050.7 | |
| 20260503222944 | 14 | 0.0 | 0.0 | 0.00 | 0.00 | 0.00 | 10 | 1050.4 | |
| 20260503221407 | 15 | 0.0 | 0.0 | 0.00 | 0.00 | 0.00 | 10 | 1050.6 | |
| 20260503215832 | 15 | 0.0 | 0.0 | 0.00 | 0.00 | 0.00 | 10 | 1050.6 | |
| 20260503214256 | 15 | 0.0 | 0.0 | 0.00 | 0.00 | 0.00 | 10 | 1050.2 | |
| 20260503211144 | 15 | 0.0 | 0.0 | 0.00 | 0.00 | 0.00 | 10 | 1049.9 | |
| 20260503205608 | 16 | 0.0 | 0.0 | 0.00 | 0.00 | 0.00 | 10 | 1049.6 | |
| 20260503204032 | 16 | 0.0 | 0.0 | 0.00 | 0.00 | 0.00 | 10 | 1048.8 | |
| 20260503202456 | 16 | 0.0 | 0.0 | 0.00 | 0.00 | 0.00 | 10 | 1048.8 | |
| 20260503200920 | 16 | 0.0 | 0.0 | 0.00 | 0.00 | 0.00 | 10 | 1048.5 | |
| 20260503195344 | 16 | 0.0 | 0.0 | 0.00 | 0.00 | 0.00 | 10 | 1048.5 | |
| 20260503193808 | 16 | 0.0 | 0.0 | 0.00 | 0.00 | 0.00 | 10 | 1048.5 | |
| 20260503192232 | 16 | 0.0 | 0.0 | 0.00 | 0.00 | 0.00 | 10 | 1048.5 | |
| 20260503190656 | 15 | 0.0 | 0.0 | 0.00 | 0.00 | 0.00 | 10 | 1048.5 | |
| 20260503185120 | 16 | 0.0 | 0.0 | 0.00 | 0.00 | 0.00 | 10 | 1048.5 | |
| 20260503183544 | 16 | 0.0 | 0.0 | 0.00 | 0.00 | 0.00 | 10 | 1048.4 | |
| 20260503182008 | 16 | 0.0 | 0.0 | 0.00 | 0.00 | 0.00 | 10 | 1048.4 | |
| 20260503180432 | 16 | 0.0 | 0.0 | 0.00 | 0.00 | 0.00 | 10 | 1048.0 | |
| 20260503174856 | 16 | 0.0 | 0.0 | 0.00 | 0.00 | 0.00 | 10 | 1047.9 | |
| 20260503173320 | 16 | 0.0 | 0.0 | 0.00 | 0.00 | 0.00 | 10 | 1048.0 | |
| 20260503171744 | 16 | 0.0 | 0.0 | 0.00 | 0.00 | 0.00 | 10 | 1047.8 | |
| 20260503170208 | 16 | 0.0 | 0.0 | 0.00 | 0.00 | 0.00 | 10 | 1048.2 | |
| 20260503130809 | 22 | 0.0 | 0.0 | 0.00 | 0.00 | 0.00 | 70 | 1048.7 | |
| 20260503110321 | 19 | 0.0 | 0.0 | 0.00 | 0.00 | 0.00 | 69 | 1049.6 | |
| 20260503081145 | 21 | 0.0 | 0.0 | 0.00 | 0.00 | 0.00 | 68 | 1049.4 | |
| 20260503072457 | 19 | 0.0 | 0.0 | 0.00 | 0.00 | 0.00 | 83 | 1049.6 | |
| 20260503070921 | 18 | 0.0 | 0.0 | 0.00 | 0.00 | 0.00 | 86 | 1049.8 | |
| 20260503055122 | 16 | 0.0 | 0.0 | 0.00 | 0.00 | 0.00 | 95 | 1049.9 | |
| 20260503053546 | 15 | 0.0 | 0.0 | 0.00 | 0.00 | 0.00 | 96 | 1049.9 | |
| 20260503052010 | 15 | 0.0 | 0.0 | 0.00 | 0.00 | 0.00 | 96 | 1049.8 | |
| 20260503050434 | 15 | 0.0 | 0.0 | 0.00 | 0.00 | 0.00 | 95 | 1049.7 | |
| 20260503044858 | 15 | 0.0 | 0.0 | 0.00 | 0.00 | 0.00 | 95 | 1049.7 | |
| 20260503043322 | 15 | 0.0 | 0.0 | 0.00 | 0.00 | 0.00 | 95 | 1049.6 | |
| 20260503041746 | 15 | 0.0 | 0.0 | 0.00 | 0.00 | 0.00 | 95 | 1049.5 | |
| 20260503040210 | 15 | 0.0 | 0.0 | 0.00 | 0.00 | 0.00 | 95 | 1049.6 | |
| 20260503034634 | 15 | 0.0 | 0.0 | 0.00 | 0.00 | 0.00 | 94 | 1049.6 | |
| 20260503033058 | 15 | 0.0 | 0.0 | 0.00 | 0.00 | 0.00 | 94 | 1049.7 | |
| 20260503031522 | 15 | 0.0 | 0.0 | 0.00 | 0.00 | 0.00 | 94 | 1049.8 | |
| 20260503025946 | 15 | 0.0 | 0.0 | 0.00 | 0.00 | 0.00 | 93 | 1049.9 |